Regional Weather Roundup
Issued by NWS

Home | Current Version | Previous Version | Graphics & Text | Print | Product List | Glossary On
Versions: 1 2 3 4 5 6 7 8 9 10 11 12 13 14 15 16 17 18 19 20 21 22 23 24 25 26 27 28 29 30 31 32 33 34 35 36 37 38 39
000
ASUS45 KBOU 211710
RWRCO

WEATHER ROUNDUP FOR COLORADO
NATIONAL WEATHER SERVICE DENVER/BOULDER CO
1000 AM MST WED FEB 21 2018

NOTE: "FAIR" INDICATES FEW OR NO CLOUDS BELOW 12000 FEET WITH NO
SIGNIFICANT WEATHER AND/OR OBSTRUCTIONS TO VISIBILITY.

COZ001>005-013-030-031-211800-
...NORTHWEST COLORADO...

CITY           SKY/WX    TMP DP  RH WIND       PRES   REMARKS
CRAIG          FAIR       1  -5  75 SW6       30.14F WCI -10
HAYDEN         FAIR       7  -2  66 E10       30.12F WCI  -8
MEEKER         FAIR       7   0  73 CALM      30.11F
RANGELY        FAIR       8  -1  65 CALM      30.19F
RABBIT EARS PA FAIR       7   3  85 SW9G18    29.93S WCI  -7
STEAMBOAT SPGS FAIR       0  -5  77 CALM      30.10F
WALDEN         FAIR      14   1  57 S15       30.04F WCI  -1
$$

COZ006>008-011-211800-
...WEST CENTRAL VALLEYS...

CITY           SKY/WX    TMP DP  RH WIND       PRES   REMARKS
GRAND JUNCTION FAIR      25  10  53 E18       30.16F WCI  11
MONTROSE       FAIR      20   5  52 CALM      30.17F
EAGLE          FAIR      14   0  53 CALM      30.18F
RIFLE          FAIR      15   5  64 CALM      30.16F
DELTA          FAIR      25   8  48 CALM      30.18F
NUCLA          FAIR      23   9  54 CALM      30.15F
$$

COZ017>023-064>068-211800-
...SOUTHWEST COLORADO...

CITY           SKY/WX    TMP DP  RH WIND       PRES   REMARKS
DURANGO        FAIR      26  12  55 CALM      30.12S
CORTEZ         FAIR      35  12  38 S15       30.10F WCI  25
PAGOSA SPRINGS FAIR      22   7  53 CALM      30.12S
TELLURIDE      FAIR      21  -2  37 SE13      30.03S WCI   8
WOLF CREEK PAS PTSUNNY    5   5 100 S17G25    30.02S WCI -14
$$

COZ009-010-012-014-032>034-037-058>063-211800-
...CENTRAL COLORADO...

CITY           SKY/WX    TMP DP  RH WIND       PRES   REMARKS
ASPEN          FAIR      12   0  58 N6        30.05S WCI   3
BUENA VISTA    FAIR      17  -2  42 CALM      30.09S
COPPER MTN     FAIR      10 -13  34 S14       29.92R WCI  -5
BERTHOUD PASS  FAIR       0  -9  65 W25G36    29.88S WCI -25
COTTONWOOD PAS FAIR      18  -4  38 CALM      30.00F
GUNNISON       FAIR       8  -3  61 CALM      30.15F
GRANBY         FAIR       0  -5  77 CALM      30.09S
KREMMLING      FAIR      12  -2  52 CALM      30.14F
LEADVILLE      FAIR       8  -8  48 CALM      29.98S
MONARCH PASS     N/A      3   0  85 SW10      30.05S WCI -12
SALIDA         FAIR      19   3  49 CALM      30.17F
SUNLIGHT       FAIR       5   1  85 SW10G18   30.02R WCI -10
WILKERSON PASS FAIR       7   0  72 SW14G22   29.97R WCI -10
$$

COZ069>075-211800-
...SAN LUIS VALLEY/SANGRE DE CRISTO MOUNTAINS...

CITY           SKY/WX    TMP DP  RH WIND       PRES   REMARKS
ALAMOSA        FAIR      19   2  47 CALM      30.12F
DEL NORTE      FAIR      17   0  47 W6        30.12S WCI   8
LA VETA PASS   LGT SNOW  21  12  68 S15G30    30.14S WCI   8
SAGUACHE       FAIR      19   3  49 NW6       30.12S WCI  11
$$

COZ035-036-038>040-211800-
...NORTHERN COLORADO FRONT RANGE...

CITY           SKY/WX    TMP DP  RH WIND       PRES   REMARKS
DENVER INTL AP FAIR      13   8  81 E7        30.19F WCI   3
AURORA         MOSUNNY   14   8  76 NE6       30.17F WCI   5
FRONT RANGE AP MOSUNNY   18   9  68 CALM      30.19F
ERIE MUNI ARPT FAIR      12  10  89 CALM      30.28S
BOULDER MUN AP FAIR      14  12  92 CALM      30.20S
CENTENNIAL     FAIR      20   9  62 CALM      30.15F
BROOMFIELD     SUNNY     12   9  85 CALM      30.18S
FORT COLLINS   FAIR      12   8  84 SE7       30.24S WCI   1
LONGMONT       FAIR      18  11  74 CALM      30.24S
$$

COZ041-046-047-076>085-087-088-211800-
...PIKES PEAK/PALMER DIVIDE AND SOUTHERN FOOTHILLS...

CITY           SKY/WX    TMP DP  RH WIND       PRES   REMARKS
COLO. SPRINGS  FAIR      16   8  71 S7        30.20F WCI   6
A. F. ACADEMY  MOSUNNY   15   5  65 SE9       30.16F WCI   3
SCHRIEVER AFB  NOT AVBL
CHEYENNE MTN   PTSUNNY   12  10  92 E3        30.09F
ELLICOTT         N/A    N/A N/A N/A SW7       30.19S
FALCON         FAIR      16   8  68 SW8       30.17S WCI   5
FORT CARSON    FAIR      18   7  61 S9        30.20F WCI   7
LIMON          FAIR      21   7  54 S14       30.23F WCI   8
MONUMENT HILL  FAIR      18   9  68 S14G21    30.12F WCI   4
CANON CITY     SUNNY     19  12  73 CALM      30.24F
WALSENBURG     NOT AVBL
TRINIDAD       FAIR      21   9  59 SE5       30.20F WCI  15
$$

COZ042>045-048>051-090-091-211800-
...NORTHEAST COLORADO...

CITY           SKY/WX    TMP DP  RH WIND       PRES   REMARKS
GREELEY ARPT   NOT AVBL
AKRON          FAIR      22   4  46 S16       30.26F WCI   8
BURLINGTON     FAIR      18   5  57 SE12      30.34F WCI   5
WRAY           FAIR      23   5  46 SE14      30.37F WCI  11
YUMA           NOT AVBL
STERLING       FAIR      14   9  79 SW3       30.31F
HOLYOKE        FAIR      27  10  50 S16       30.35F WCI  14
FORT MORGAN    FAIR      15   6  65 SW3       30.27F
$$

COZ086-089-092>099-211800-
...SOUTHEAST COLORADO...

CITY           SKY/WX    TMP DP  RH WIND       PRES   REMARKS
PUEBLO         FAIR      22  10  60 CALM      30.28F
LA JUNTA       FAIR      20   8  60 SE6       30.33F WCI  12
LAMAR          CLOUDY    19   3  49 SE6       30.37F WCI  11
SPRINGFIELD      N/A     15  -1  49 SE8       30.34S WCI   4
$$




USA.gov is the U.S. government's official web portal to all federal, state and local government web resources and services.